| time (UTC) | temp F | wind direction | speed MPH | gust MPH | rain 1hr in | rain 24hr in | rain mn in | humidity % | barometer mb |
| 20260507141535 | 77 | 355 | 8.0 | 14.0 | 0.00 | 0.00 | 0.00 | 21 | 953.3 |
| 20260507140039 | 75 | 29 | 0.0 | 4.0 | 0.00 | 0.00 | 0.00 | 25 | 953.1 |
| 20260507134531 | 73 | 72 | 0.0 | 1.0 | 0.00 | 0.00 | 0.00 | 26 | 953.1 |
| 20260507133034 | 71 | 84 | 0.0 | 1.0 | 0.00 | 0.00 | 0.00 | 28 | 953.1 |
| 20260507131528 | 70 | 87 | 0.0 | 2.0 | 0.00 | 0.00 | 0.00 | 28 | 952.9 |
| 20260507130027 | 70 | 86 | 0.0 | 1.0 | 0.00 | 0.00 | 0.00 | 29 | 952.9 |
| 20260507124526 | 70 | 86 | 0.0 | 1.0 | 0.00 | 0.00 | 0.00 | 29 | 952.7 |
| 20260507123032 | 68 | 78 | 0.0 | 4.0 | 0.00 | 0.00 | 0.00 | 30 | 952.7 |
| 20260507121522 | 70 | 79 | 1.0 | 3.0 | 0.00 | 0.00 | 0.00 | 30 | 952.7 |
| 20260507120022 | 70 | 82 | 1.0 | 6.0 | 0.00 | 0.00 | 0.00 | 30 | 952.7 |
| 20260507114521 | 69 | 86 | 3.0 | 5.0 | 0.00 | 0.00 | 0.00 | 30 | 952.6 |
| 20260507113030 | 70 | 77 | 0.0 | 3.0 | 0.00 | 0.00 | 0.00 | 29 | 952.5 |
| 20260507111522 | 71 | 80 | 2.0 | 4.0 | 0.00 | 0.00 | 0.00 | 29 | 952.4 |
| 20260507110017 | 71 | 67 | 0.0 | 0.0 | 0.00 | 0.00 | 0.00 | 28 | 952.5 |
| 20260507104514 | 72 | 68 | 0.0 | 0.0 | 0.00 | 0.00 | 0.00 | 28 | 952.5 |
| 20260507103015 | 72 | 68 | 0.0 | 1.0 | 0.00 | 0.00 | 0.00 | 28 | 952.5 |
| 20260507101515 | 72 | 79 | 0.0 | 4.0 | 0.00 | 0.00 | 0.00 | 27 | 952.5 |
| 20260507100016 | 72 | 87 | 2.0 | 4.0 | 0.00 | 0.00 | 0.00 | 26 | 952.5 |
| 20260507094510 | 72 | 79 | 1.0 | 6.0 | 0.00 | 0.00 | 0.00 | 26 | 952.6 |
| 20260507093018 | 73 | 93 | 1.0 | 4.0 | 0.00 | 0.00 | 0.00 | 26 | 952.5 |
| 20260507091506 | 73 | 90 | 0.0 | 0.0 | 0.00 | 0.00 | 0.00 | 25 | 952.5 |
| 20260507090006 | 74 | 83 | 0.0 | 1.0 | 0.00 | 0.00 | 0.00 | 25 | 952.5 |
| 20260507084504 | 74 | 81 | 0.0 | 0.0 | 0.00 | 0.00 | 0.00 | 25 | 952.5 |
| 20260507083004 | 74 | 109 | 0.0 | 1.0 | 0.00 | 0.00 | 0.00 | 25 | 952.5 |
| 20260507081502 | 74 | 199 | 0.0 | 7.0 | 0.00 | 0.00 | 0.00 | 25 | 952.6 |
| 20260507080135 | 74 | 88 | 5.0 | 8.0 | 0.00 | 0.00 | 0.00 | 25 | 952.4 |
| 20260507074657 | 75 | 79 | 4.0 | 7.0 | 0.00 | 0.00 | 0.00 | 25 | 952.4 |
| 20260507073101 | 76 | 88 | 2.0 | 5.0 | 0.00 | 0.00 | 0.00 | 26 | 952.3 |
| 20260507071601 | 76 | 92 | 2.0 | 7.0 | 0.00 | 0.00 | 0.00 | 25 | 952.3 |
| 20260507070050 | 76 | 101 | 2.0 | 8.0 | 0.00 | 0.00 | 0.00 | 25 | 952.2 |
| 20260507064553 | 77 | 104 | 4.0 | 8.0 | 0.00 | 0.00 | 0.00 | 24 | 952.1 |
| 20260507063051 | 76 | 98 | 4.0 | 7.0 | 0.00 | 0.00 | 0.00 | 24 | 951.9 |
| 20260507061547 | 77 | 162 | 0.0 | 5.0 | 0.00 | 0.00 | 0.00 | 23 | 951.8 |
| 20260507060047 | 77 | 112 | 0.0 | 0.0 | 0.00 | 0.00 | 0.00 | 22 | 951.6 |
| 20260507054552 | 78 | 91 | 2.0 | 6.0 | 0.00 | 0.00 | 0.00 | 22 | 951.5 |
| 20260507053048 | 78 | 102 | 4.0 | 6.0 | 0.00 | 0.00 | 0.00 | 22 | 951.3 |
| 20260507051544 | 79 | 80 | 4.0 | 7.0 | 0.00 | 0.00 | 0.00 | 22 | 951.3 |
| 20260507050043 | 78 | 85 | 2.0 | 7.0 | 0.00 | 0.00 | 0.00 | 22 | 951.2 |
| 20260507044543 | 79 | 88 | 2.0 | 7.0 | 0.00 | 0.00 | 0.00 | 21 | 951.1 |
| 20260507043043 | 80 | 3.0 | 5.0 | 0.00 | 0.00 | 0.00 | 21 | 951.1 | |
| 20260507041542 | 81 | 2.0 | 6.0 | 0.00 | 0.00 | 0.00 | 21 | 950.9 | |
| 20260507040053 | 81 | 3.0 | 8.0 | 0.00 | 0.00 | 0.00 | 20 | 950.7 | |
| 20260507034549 | 82 | 2.0 | 3.0 | 0.00 | 0.00 | 0.00 | 20 | 950.6 | |
| 20260507033043 | 83 | 294 | 0.0 | 0.0 | 0.00 | 0.00 | 0.00 | 19 | 950.4 |
| 20260507031539 | 85 | 314 | 0.0 | 0.0 | 0.00 | 0.00 | 0.00 | 19 | 950.2 |
| 20260507030039 | 85 | 314 | 0.0 | 0.0 | 0.00 | 0.00 | 0.00 | 18 | 950.0 |
| 20260507024538 | 86 | 314 | 0.0 | 2.0 | 0.00 | 0.00 | 0.00 | 18 | 949.8 |
| 20260507023038 | 86 | 313 | 4.0 | 7.0 | 0.00 | 0.00 | 0.00 | 18 | 949.7 |
| 20260507021536 | 87 | 312 | 2.0 | 5.0 | 0.00 | 0.00 | 0.00 | 18 | 949.7 |
| 20260507020036 | 88 | 326 | 2.0 | 7.0 | 0.00 | 0.00 | 0.00 | 17 | 949.7 |
| 20260507014536 | 88 | 346 | 4.0 | 8.0 | 0.00 | 0.00 | 0.00 | 17 | 949.7 |
| 20260507013038 | 88 | 350 | 3.0 | 13.0 | 0.00 | 0.00 | 0.00 | 17 | 949.7 |
| 20260507011539 | 88 | 5.0 | 8.0 | 0.00 | 0.00 | 0.00 | 17 | 949.8 | |
| 20260507010032 | 88 | 314 | 7.0 | 11.0 | 0.00 | 0.00 | 0.00 | 17 | 949.8 |
| 20260507004531 | 87 | 344 | 7.0 | 12.0 | 0.00 | 0.00 | 0.00 | 18 | 950.0 |
| 20260507003030 | 87 | 315 | 3.0 | 9.0 | 0.00 | 0.00 | 0.00 | 17 | 950.0 |
| 20260507001531 | 87 | 9.0 | 14.0 | 0.00 | 0.00 | 0.00 | 17 | 950.0 | |
| 20260507000029 | 87 | 344 | 9.0 | 17.0 | 0.00 | 0.00 | 0.00 | 17 | 950.0 |
| 20260506234533 | 87 | 319 | 13.0 | 18.0 | 0.00 | 0.00 | 0.00 | 17 | 949.9 |
| 20260506233026 | 87 | 12.0 | 17.0 | 0.00 | 0.00 | 0.00 | 17 | 950.2 | |
| 20260506231524 | 86 | 5.0 | 16.0 | 0.00 | 0.00 | 0.00 | 19 | 950.3 | |
| 20260506230021 | 86 | 291 | 7.0 | 14.0 | 0.00 | 0.00 | 0.00 | 20 | 950.4 |
| 20260506224525 | 86 | 316 | 8.0 | 13.0 | 0.00 | 0.00 | 0.00 | 20 | 950.7 |
| 20260506223017 | 85 | 306 | 11.0 | 17.0 | 0.00 | 0.00 | 0.00 | 20 | 951.0 |
| 20260506221516 | 84 | 274 | 8.0 | 14.0 | 0.00 | 0.00 | 0.00 | 22 | 951.2 |
| 20260506220015 | 85 | 331 | 8.0 | 13.0 | 0.00 | 0.00 | 0.00 | 22 | 951.5 |
| 20260506214513 | 84 | 287 | 3.0 | 10.0 | 0.00 | 0.00 | 0.00 | 21 | 951.7 |
| 20260506213019 | 83 | 149 | 4.0 | 13.0 | 0.00 | 0.00 | 0.00 | 22 | 952.0 |
| 20260506211513 | 83 | 13 | 2.0 | 10.0 | 0.00 | 0.00 | 0.00 | 22 | 952.2 |
| 20260506210010 | 83 | 145 | 0.0 | 9.0 | 0.00 | 0.00 | 0.00 | 22 | 952.4 |
| 20260506204506 | 81 | 295 | 0.0 | 6.0 | 0.00 | 0.00 | 0.00 | 23 | 952.6 |
| 20260506203004 | 81 | 139 | 4.0 | 10.0 | 0.00 | 0.00 | 0.00 | 24 | 952.7 |
| 20260506201503 | 80 | 238 | 2.0 | 13.0 | 0.00 | 0.00 | 0.00 | 24 | 952.8 |
| 20260506200003 | 80 | 245 | 6.0 | 11.0 | 0.00 | 0.00 | 0.00 | 25 | 953.0 |
| 20260506194600 | 79 | 205 | 4.0 | 10.0 | 0.00 | 0.00 | 0.00 | 25 | 953.3 |
| 20260506193058 | 79 | 219 | 8.0 | 15.0 | 0.00 | 0.00 | 0.00 | 26 | 953.3 |
| 20260506191604 | 79 | 245 | 9.0 | 14.0 | 0.00 | 0.00 | 0.00 | 27 | 953.5 |
| 20260506190058 | 78 | 239 | 2.0 | 12.0 | 0.00 | 0.00 | 0.00 | 28 | 953.7 |
| 20260506184600 | 77 | 231 | 3.0 | 12.0 | 0.00 | 0.00 | 0.00 | 28 | 953.8 |
| 20260506183058 | 76 | 200 | 6.0 | 14.0 | 0.00 | 0.00 | 0.00 | 29 | 954.1 |
| 20260506181556 | 76 | 231 | 4.0 | 17.0 | 0.00 | 0.00 | 0.00 | 29 | 954.2 |
| 20260506180051 | 74 | 175 | 2.0 | 12.0 | 0.00 | 0.00 | 0.00 | 31 | 954.3 |
| 20260506174604 | 74 | 255 | 3.0 | 10.0 | 0.00 | 0.00 | 0.00 | 31 | 954.4 |
| 20260506173053 | 72 | 276 | 1.0 | 10.0 | 0.00 | 0.00 | 0.00 | 33 | 954.4 |
| 20260506171543 | 72 | 5.0 | 10.0 | 0.00 | 0.00 | 0.00 | 33 | 954.4 | |
| 20260506170040 | 71 | 240 | 2.0 | 10.0 | 0.00 | 0.00 | 0.00 | 33 | 954.4 |
| 20260506164545 | 70 | 236 | 0.0 | 9.0 | 0.00 | 0.00 | 0.00 | 34 | 954.4 |
| 20260506163054 | 69 | 210 | 1.0 | 6.0 | 0.00 | 0.00 | 0.00 | 34 | 954.5 |
| 20260506161533 | 69 | 2.0 | 7.0 | 0.00 | 0.00 | 0.00 | 35 | 954.4 | |
| 20260506160030 | 67 | 158 | 2.0 | 7.0 | 0.00 | 0.00 | 0.00 | 36 | 954.4 |
| 20260506154535 | 67 | 195 | 0.0 | 4.0 | 0.00 | 0.00 | 0.00 | 36 | 954.3 |
| 20260506153031 | 66 | 273 | 0.0 | 3.0 | 0.00 | 0.00 | 0.00 | 37 | 954.3 |
| 20260506151533 | 65 | 217 | 0.0 | 0.0 | 0.00 | 0.00 | 0.00 | 39 | 954.2 |
| 20260506150024 | 64 | 285 | 0.0 | 0.0 | 0.00 | 0.00 | 0.00 | 39 | 954.0 |
| 20260506144522 | 64 | 243 | 0.0 | 1.0 | 0.00 | 0.00 | 0.00 | 39 | 954.0 |
| 20260506143019 | 64 | 221 | 0.0 | 1.0 | 0.00 | 0.00 | 0.00 | 40 | 953.8 |